NOAA 17 DEB

Satellite information

Favourite Embed

Satellite Type and Status

DEBRISIN ORBIT

Key statistics

Satellite NOAA 17 DEB at a glance.

Uptime

8574

Days in orbit

Revolutions

≈ 14.9

Per day

Orbit

SSO

Sun Synchronous Orbit

Inclination

98.7

Latest

Satellite identification and parameters

Extended collection of information and parameters for NOAA 17 DEB.

Object identification

Identified? True

Debris? True

Object name: NOAA 17 DEB

International designator: 2002-032W

Object number (NORAD): 48181

Object ID (CCSDS): 48181

Country: UNITED STATES OF AMERICA (US)

Current information (Y/N): Y

RCS size: SMALL

Orbital parameters

Period: 96.619 minutes

Inclination: 98.697 deg

SMA: 6974.859 km

Apoapsis: 605.354 km

Periapsis: 588.095 km

RAAN: 339.0854 deg

Eccentricy: 0.00123721

Argument of periapsis: 51.9294 deg

Mean anomaly: 308.3035 deg

Mean motion: 14.90388781 rev/day

Mean motion (dot): 0.00081586 rev/day2

B* drag term: 0.0082794425 1/REarth

Two-line elements (TLE)

Creation date: Dec. 13, 2025, 4:32 a.m.

Reference frame: TEME

Reference center: EARTH

Epoch: Dec. 12, 2025, 10:18 p.m. UTC

TLE line 0: 0 NOAA 17 DEB

TLE line 1: 1 48181U 02032W 25346.92964851 .00081586 00000-0 82794-2 0 9993

TLE line 2: 2 48181 98.6970 339.0854 0012372 51.9294 308.3035 14.90388781247857

Live tracking on map

Real-time ground track for satellite NOAA 17 DEB.

In-orbit conjunctions

A list of the most updated potential collisions computed for object NOAA 17 DEB.

Target Orbit TCA Probability of collision Miss distance Type
CZ-6A DEB LEO 2025-06-13 05:15:10 0.0001125559 183.0 (m) DEBRIS
THORAD AGENA D DEB SSO 2024-11-09 00:55:54 0.0002088211 823.0 (m) DEBRIS
GEOSAT SSO 2024-07-28 01:05:48 0.0001048348 289.0 (m) PAYLOAD
SL-8 R/B LEO 2024-06-26 12:08:56 0.0001786539 172.0 (m) ROCKET BODY

Associated space launch

NOAA M carried weather imagers and microwave and infrared sounders, as well as a SARSAT search-and-rescue package. It had an on-orbit mass of 1475 kg.

NOAA 17 DEB was lifted into orbit during the mission ‘Titan II SLV | NOAA 17’, on board a Titan II SLV space rocket.

The launch took place on June 24, 2002, 6:23 p.m. from Space Launch Complex 4W.

For more information about the launch, click the button.

Launch to space Titan II SLV | NOAA 17
Titan II SLV | NOAA 17

Agency: N/A

Status: Launch Successful

Launch date: June 24, 2002, 6:23 p.m. UTC

Rocket: Titan II SLV

Launch pad: Space Launch Complex 4W

Location: Vandenberg SFB, CA, USA

...

Latest news about this satellite

There are no fresh news available about this satellite. Check back as we update our databases every day.


Newsletter sign-up

Weekly statistics, charts and insights to help you stay on top of the space industry.